TimeCDT,TemperatureF,Dew PointF,Humidity,Sea Level PressureIn,VisibilityMPH,Wind Direction,Wind SpeedMPH,Gust SpeedMPH,PrecipitationIn,Events,Conditions,WindDirDegrees,DateUTC
12:13 AM,28.4,21.2,74,30.23,10.0,West,3.5,-,N/A,,Clear,260,2012-10-07 05:13:00
12:33 AM,28.4,21.2,74,30.23,10.0,West,3.5,-,N/A,,Clear,260,2012-10-07 05:33:00
12:53 AM,28.4,21.2,74,30.22,10.0,WSW,3.5,-,N/A,,Clear,250,2012-10-07 05:53:00
1:13 AM,28.4,21.2,74,30.22,10.0,WSW,4.6,-,N/A,,Clear,240,2012-10-07 06:13:00
1:33 AM,28.4,21.2,74,30.22,10.0,WSW,4.6,-,N/A,,Clear,240,2012-10-07 06:33:00
1:53 AM,28.4,21.2,74,30.22,10.0,WSW,3.5,-,N/A,,Clear,250,2012-10-07 06:53:00
2:13 AM,26.6,21.2,80,30.22,10.0,WSW,3.5,-,N/A,,Clear,250,2012-10-07 07:13:00
2:33 AM,26.6,21.2,80,30.21,10.0,SW,3.5,-,N/A,,Clear,220,2012-10-07 07:33:00
2:53 AM,26.6,21.2,80,30.20,10.0,Calm,Calm,-,N/A,,Clear,0,2012-10-07 07:53:00
3:13 AM,24.8,21.2,86,30.20,10.0,WSW,3.5,-,N/A,,Clear,250,2012-10-07 08:13:00
3:33 AM,24.8,21.2,86,30.19,10.0,WSW,3.5,-,N/A,,Clear,240,2012-10-07 08:33:00
3:53 AM,24.8,21.2,86,30.19,10.0,WSW,3.5,-,N/A,,Clear,240,2012-10-07 08:53:00
4:13 AM,24.8,21.2,86,30.19,10.0,Calm,Calm,-,N/A,,Clear,0,2012-10-07 09:13:00
4:33 AM,24.8,21.2,86,30.18,10.0,Calm,Calm,-,N/A,,Clear,0,2012-10-07 09:33:00
4:53 AM,24.8,21.2,86,30.17,10.0,WSW,4.6,-,N/A,,Clear,240,2012-10-07 09:53:00
5:13 AM,24.8,21.2,86,30.17,10.0,WSW,4.6,-,N/A,,Clear,240,2012-10-07 10:13:00
5:33 AM,24.8,21.2,86,30.16,10.0,Calm,Calm,-,N/A,,Clear,0,2012-10-07 10:33:00
5:53 AM,24.8,21.2,86,30.16,10.0,SW,3.5,-,N/A,,Clear,230,2012-10-07 10:53:00
6:13 AM,24.8,21.2,86,30.15,10.0,SW,4.6,-,N/A,,Clear,230,2012-10-07 11:13:00
6:33 AM,24.8,21.2,86,30.15,10.0,WSW,4.6,-,N/A,,Clear,240,2012-10-07 11:33:00
6:53 AM,24.8,21.2,86,30.15,10.0,WSW,4.6,-,N/A,,Clear,240,2012-10-07 11:53:00
7:13 AM,26.6,21.2,80,30.14,10.0,SW,5.8,-,N/A,,Clear,230,2012-10-07 12:13:00
7:33 AM,24.8,21.2,86,30.14,10.0,SW,5.8,-,N/A,,Clear,230,2012-10-07 12:33:00
7:53 AM,26.6,21.2,80,30.14,10.0,SW,5.8,-,N/A,,Clear,230,2012-10-07 12:53:00
8:13 AM,26.6,23.0,86,30.13,10.0,SW,4.6,-,N/A,,Clear,220,2012-10-07 13:13:00
8:53 AM,32.0,24.8,75,30.13,10.0,SW,6.9,-,N/A,,Clear,230,2012-10-07 13:53:00
9:13 AM,33.8,24.8,70,30.12,10.0,SW,6.9,-,N/A,,Clear,230,2012-10-07 14:13:00
9:33 AM,33.8,23.0,65,30.12,10.0,WSW,5.8,-,N/A,,Clear,240,2012-10-07 14:33:00
9:53 AM,37.4,23.0,56,30.12,10.0,WSW,9.2,-,N/A,,Clear,240,2012-10-07 14:53:00
10:13 AM,41.0,23.0,49,30.12,10.0,SW,8.1,-,N/A,,Clear,230,2012-10-07 15:13:00
10:33 AM,42.8,21.2,42,30.11,10.0,WSW,8.1,-,N/A,,Clear,240,2012-10-07 15:33:00
10:53 AM,44.6,21.2,39,30.10,10.0,SW,9.2,-,N/A,,Clear,230,2012-10-07 15:53:00
11:13 AM,46.4,21.2,37,30.10,10.0,WSW,12.7,17.3,N/A,,Clear,240,2012-10-07 16:13:00
11:33 AM,46.4,21.2,37,30.09,10.0,SW,8.1,16.1,N/A,,Clear,220,2012-10-07 16:33:00
11:53 AM,50.0,21.2,32,30.08,10.0,SW,10.4,17.3,N/A,,Clear,230,2012-10-07 16:53:00
12:13 PM,50.0,19.4,30,30.07,10.0,WSW,9.2,20.7,N/A,,Clear,240,2012-10-07 17:13:00
12:33 PM,51.8,19.4,28,30.06,10.0,SW,10.4,17.3,N/A,,Clear,230,2012-10-07 17:33:00
12:53 PM,51.8,17.6,26,30.06,10.0,WSW,9.2,-,N/A,,Clear,240,2012-10-07 17:53:00
1:13 PM,53.6,17.6,24,30.04,10.0,SW,10.4,18.4,N/A,,Clear,220,2012-10-07 18:13:00
1:33 PM,53.6,17.6,24,30.03,10.0,WSW,5.8,16.1,N/A,,Clear,240,2012-10-07 18:33:00
1:53 PM,53.6,15.8,22,30.02,10.0,SSW,5.8,-,N/A,,Clear,210,2012-10-07 18:53:00
2:13 PM,55.4,15.8,21,30.01,10.0,SW,9.2,-,N/A,,Clear,230,2012-10-07 19:13:00
2:33 PM,53.6,14.0,21,30.00,10.0,SW,6.9,18.4,N/A,,Clear,230,2012-10-07 19:33:00
2:53 PM,53.6,14.0,21,29.99,10.0,WSW,9.2,-,N/A,,Clear,250,2012-10-07 19:53:00
3:13 PM,51.8,14.0,22,29.97,10.0,WSW,6.9,-,N/A,,Clear,250,2012-10-07 20:13:00
3:33 PM,55.4,12.2,18,29.96,10.0,WSW,10.4,-,N/A,,Clear,250,2012-10-07 20:33:00
3:54 PM,57.2,12.2,17,29.95,10.0,SW,5.8,9.2,N/A,,Clear,230,2012-10-07 20:54:00
4:13 PM,57.2,12.2,17,29.94,10.0,WSW,11.5,16.1,N/A,,Clear,250,2012-10-07 21:13:00
4:33 PM,57.2,15.8,20,29.93,10.0,WSW,8.1,-,N/A,,Scattered Clouds,240,2012-10-07 21:33:00
4:53 PM,53.6,15.8,22,29.93,10.0,West,8.1,-,N/A,,Scattered Clouds,260,2012-10-07 21:53:00
5:13 PM,57.2,15.8,20,29.93,10.0,WSW,8.1,-,N/A,,Mostly Cloudy,240,2012-10-07 22:13:00
5:34 PM,55.4,15.8,21,29.92,10.0,WSW,9.2,-,N/A,,Scattered Clouds,240,2012-10-07 22:34:00
5:53 PM,55.4,15.8,21,29.92,10.0,SW,4.6,-,N/A,,Scattered Clouds,230,2012-10-07 22:53:00
6:13 PM,53.6,15.8,22,29.91,10.0,Calm,Calm,-,N/A,,Scattered Clouds,0,2012-10-07 23:13:00
6:33 PM,48.2,15.8,27,29.91,10.0,Calm,Calm,-,N/A,,Scattered Clouds,0,2012-10-07 23:33:00
6:53 PM,44.6,12.2,27,29.90,10.0,Calm,Calm,-,N/A,,Scattered Clouds,0,2012-10-07 23:53:00
7:13 PM,42.8,10.4,27,29.90,10.0,Calm,Calm,-,N/A,,Clear,0,2012-10-08 00:13:00
7:53 PM,39.2,8.6,28,29.90,10.0,Calm,Calm,-,N/A,,Clear,0,2012-10-08 00:53:00
8:13 PM,37.4,10.4,33,29.90,10.0,Calm,Calm,-,N/A,,Clear,0,2012-10-08 01:13:00
8:33 PM,35.6,14.0,41,29.90,10.0,Calm,Calm,-,N/A,,Clear,0,2012-10-08 01:33:00
8:53 PM,37.4,10.4,33,29.89,10.0,Calm,Calm,-,N/A,,Clear,0,2012-10-08 01:53:00
9:13 PM,37.4,12.2,36,29.89,10.0,Calm,Calm,-,N/A,,Clear,0,2012-10-08 02:13:00
9:33 PM,35.6,10.4,35,29.89,10.0,Calm,Calm,-,N/A,,Clear,0,2012-10-08 02:33:00
9:53 PM,35.6,10.4,35,29.89,10.0,Calm,Calm,-,N/A,,Clear,0,2012-10-08 02:53:00
10:13 PM,35.6,12.2,38,29.89,10.0,Calm,Calm,-,N/A,,Clear,0,2012-10-08 03:13:00
10:33 PM,35.6,14.0,41,29.88,10.0,Calm,Calm,-,N/A,,Clear,0,2012-10-08 03:33:00
10:53 PM,35.6,17.6,48,29.87,10.0,Calm,Calm,-,N/A,,Clear,0,2012-10-08 03:53:00
11:13 PM,35.6,17.6,48,29.86,10.0,Calm,Calm,-,N/A,,Clear,0,2012-10-08 04:13:00
11:33 PM,35.6,17.6,48,29.85,10.0,Calm,Calm,-,N/A,,Clear,0,2012-10-08 04:33:00
11:53 PM,35.6,17.6,48,29.84,10.0,Calm,Calm,-,N/A,,Clear,0,2012-10-08 04:53:00